Regional Weather Roundup
Issued by NWS Northern Indiana

Home | Current Version | Previous Version | Text Only | Print | Product List | Glossary Off
Versions: 1 2 3 4 5 6 7 8 9 10 11 12 13 14 15 16 17 18 19 20 21 22 23 24 25 26 27 28 29 30 31 32 33 34 35 36 37 38 39 40 41 42 43 44 45 46 47 48 49 50

000
ASUS43 KIWX 270310
RWRIWX

KIWX WEATHER ROUNDUP
NATIONAL WEATHER SERVICE NORTHERN INDIANA
1100 PM EDT TUE MAY 26 2015

NOTE: "FAIR" INDICATES FEW OR NO CLOUDS BELOW 12,000 FEET WITH NO
SIGNIFICANT WEATHER AND/OR OBSTRUCTIONS TO VISIBILITY.

* THESE STATIONS ARE NOT UNDER NWS QUALITY CONTROL. THEY ALSO MAY NOT
  REPORT WEATHER SUCH AS PRECIPITATION OR FOG.

INZ001>027-270400-
NORTHERN INDIANA

CITY           SKY/WX    TMP DP  RH WIND       PRES   REMARKS
GARY*          MOCLDY    72  61  68 S7        29.88R
VALPARAISO     PTCLDY    68  61  78 SW12      29.91R
MICHIGAN CITY* PTCLDY    68  59  73 S8        29.90R
LAPORTE*       PTCLDY    69  62  77 SW13      29.91R
KNOX*          PTCLDY    66  59  77 SW10      29.91R
SOUTH BEND     CLEAR     69  60  73 SW9       29.91R
GOSHEN         MOCLDY    69  60  73 SW10      29.92R
MONTICELLO*    MOCLDY    66  62  87 SW7       29.94R
LOGANSPORT*    CLOUDY    68  55  64 SW8       29.96R
ROCHESTER*     PTCLDY    72  61  68 SW9       29.95R
WARSAW*        CLOUDY    70  59  68 SW10G18   29.93R
ANGOLA*        PTCLDY    72  63  73 W6        29.92R
FORT WAYNE     MOCLDY    70  66  87 SW10      29.95R
HUNTINGTON*    CLOUDY    71  59  67 W6        29.95R
PERU/GRISSOM   CLOUDY    70  61  73 SW10      29.95R
MARION*        MOCLDY    69  57  67 SW12      29.98R

$$
INZ028>050-270400-
CENTRAL INDIANA

CITY           SKY/WX    TMP DP  RH WIND       PRES   REMARKS
LAFAYETTE      MOCLDY    68  60  75 SW8       29.95R
KOKOMO*        CLOUDY    72  57  60 SW10      29.96R
MUNCIE*        MOCLDY    72  65  78 SW9G18    29.98R
INDIANAPOLIS   MOCLDY    69  57  65 SW10      29.98R

$$
MIZ043>046-050>051-056>058-064>065-071>073-077>080-270400-
SOUTHWEST LOWER MICHIGAN

CITY           SKY/WX    TMP DP  RH WIND       PRES   REMARKS
BATTLE CREEK   MOCLDY    70  61  73 SW16      29.88R
BENTON HARBOR  PTCLDY    68  60  75 SW13G18   29.87R
COLDWATER*     MOCLDY    69  61  76 SW13G20   29.91R
HILLSDALE*     LGT RAIN  70  69  97 SW8       29.92R
HOLLAND        CLOUDY    67  59  75 SW21G26   29.85R
GRAND RAPIDS   PTCLDY    68  62  81 SW12      29.84R
KALAMAZOO      PTCLDY    70  59  68 SW13      29.89R
STURGIS*       CLOUDY    70  61  73 SW13      29.91R
THREE RIVERS*  FAIR      68  61  77 SW9       29.91R

$$
OHZ001>008-015>018-024>025-270400-
NORTHWEST OHIO

CITY           SKY/WX    TMP DP  RH WIND       PRES   REMARKS
WAUSEON*       FAIR      70  68  94 S15       29.92R
DEFIANCE       MOCLDY    71  65  81 S14       29.93R
FINDLAY        CLOUDY    71  66  84 S16       29.96R
TOLEDO EXPRESS CLOUDY    69  65  86 S12       29.92S
TOLEDO METCALF CLOUDY    70  65  84 S10       29.93S
LIMA           CLOUDY    70  66  87 S13       29.98R

$$
AND FOR LAKE MICHIGAN COASTAL AND OPEN LAKE BUOY OBSERVATIONS

STATION/POSITION TEMP    WIND        PRES    VSBY  WAVE
                 AIR SEA DIR/SP/G                  HT/PER
                 (F)     (DEG/KT/KT) (MB)    (MI)  (FT/S)
CALUMET HARBOR    71     200/  9/ 12   N/A
MICHIGAN CITY     69     180/ 15/ 19   N/A
BURNS HARBOR      69     200/ 11/ 14 1012.2S
SAINT JOSEPH      68     180/ 14/ 20 1012.5R
SOUTH LAKE BUOY   47 38  200/ 14/ 14 1010.1R         2/ 4
4 MI NW BRIDGMAN  61 55  230/ 10/ 12   N/A           2/ 3
MICHIGAN CITY     62 52  220/ 10/ 14   N/A           2/ 4

$$
&&



USA.gov is the U.S. government's official web portal to all federal, state and local government web resources and services.